Regional Weather Roundup
Issued by NWS

Home | Current Version | Previous Version | Text Only | Print | Product List | Glossary On
Versions: 1 2 3 4 5 6 7 8 9 10 11 12 13 14 15 16 17 18 19 20 21 22 23 24 25 26 27 28 29 30 31 32 33 34 35 36 37 38 39 40 41 42 43 44 45 46 47 48 49 50
000
ASUS43 KBIS 240420
RWRND

NORTH DAKOTA REGIONAL WEATHER ROUNDUP
NATIONAL WEATHER SERVICE BISMARCK ND
1100 PM CDT THU OCT 23 2014

NOTE: "FAIR" INDICATES FEW OR NO CLOUDS BELOW 12,000 FEET WITH NO
SIGNIFICANT WEATHER AND/OR OBSTRUCTIONS TO VISIBILITY.


NDZ001>003-009>011-017-240500-
NORTHWEST NORTH DAKOTA

CITY           SKY/WX    TMP DP  RH WIND       PRES   REMARKS
WILLISTON      CLOUDY    46  35  65 CALM      29.77F
MINOT          PTCLDY    53  33  46 SW12      29.74F
MINOT AFB      PTCLDY    49  35  57 W9        29.73F
$$

NDZ018>021-031>035-040>046-240500-
SOUTHWEST NORTH DAKOTA

CITY           SKY/WX    TMP DP  RH WIND       PRES   REMARKS
BISMARCK       CLOUDY    50  32  50 NW5       29.82F
DICKINSON      CLOUDY    48  31  51 S5        29.81S
GARRISON         N/A     47  34  60 NW5       29.78S
HETTINGER ARPT CLOUDY    49  28  44 SW3       29.87R
$$

NDZ004>008-012>016-024-026-027-054-240500-
NORTHEAST NORTH DAKOTA

CITY           SKY/WX    TMP DP  RH WIND       PRES   REMARKS
GRAND FORKS    CLOUDY    45  38  76 S8        29.77S
GRND FRKS AFB  CLOUDY    49  39  68 S6        29.77S
DEVILS LAKE    PTCLDY    55  37  50 SW12      29.74S
$$

NDZ022-023-025-028>030-036>039-047>053-240500-
SOUTHEAST NORTH DAKOTA

CITY           SKY/WX    TMP DP  RH WIND       PRES   REMARKS
FARGO          CLEAR     54  40  59 S12       29.83R
JAMESTOWN      CLEAR     52  35  52 SW9       29.81S
$$




USA.gov is the U.S. government's official web portal to all federal, state and local government web resources and services.